Weather History for Meadville, PA

Change the Weather History Date:

Monday, January 21, 2013

  Actual Average Record
Temperature  
Mean Temperature 14 °F -  
Max Temperature 19 °F 31 °F 60 °F (1951)
Min Temperature 10 °F 12 °F -19 °F (1985)
Degree Days  
Heating Degree Days 50    
Moisture  
Dew Point 9 °F    
Average Humidity 72    
Maximum Humidity 86    
Minimum Humidity 52    
Precipitation  
Precipitation 0.00 in - - ()
Sea Level Pressure  
Sea Level Pressure 29.96 in    
Wind  
Wind Speed 8 mph (WSW)    
Max Wind Speed 18 mph    
Max Gust Speed 31 mph    
Visibility 4 miles    
Events Fog , Snow    
Averages and records for this station are not official NWS values.
T = Trace of Precipitation, MM = Missing Value Source: NWS Daily Summary

Daily Weather History Graph

Daily Weather History Graph

Search for Another Location

Airport:

Trip Planner

Search our weather history database for the weather conditions in past years. The results will help you decide how hot, cold, wet, or windy it might be!

Date:

Astronomy

Jan. 21, 2013 Rise Set
Actual Time 7:41 AM EST 5:23 PM EST
Civil Twilight 7:11 AM EST 5:53 PM EST
Nautical Twilight 6:37 AM EST 6:27 PM EST
Astronomical Twilight 6:04 AM EST 7:00 PM EST
Moon 1:01 PM EST (1/21) 3:08 AM EST (1/21)
Length of Visible Light 10h 41m
Length of Day
9h 41m
Waxing Gibbous, 75% of the Moon is Illuminated
Jan 21
Waxing Gibbous
Jan 26
Full
Feb 3
Last Quarter
Feb 10
New
Feb 17
First Quarter

Hourly Weather History & Observations

Time (EST) Temp. Windchill Dew Point Humidity Pressure Visibility Wind Dir Wind Speed Gust Speed Precip Events Conditions
12:09 AM 19.4 °F 10.4 °F 14.0 °F 80% 30.04 in 9.0 mi West 6.9 mph - 0.00 in   Overcast
12:36 AM 19.4 °F 14.3 °F 12.2 °F 74% 30.03 in 10.0 mi West 3.5 mph - 0.00 in   Overcast
12:53 AM 19.9 °F 11.1 °F 12.9 °F 74% 30.09 in 5.0 mi West 6.9 mph - 0.00 in Snow Light Snow
1:05 AM 19.4 °F 11.5 °F 12.2 °F 74% 30.03 in 2.5 mi West 5.8 mph - 0.00 in Snow Light Snow
1:16 AM 19.4 °F 9.5 °F 14.0 °F 80% 30.03 in 0.8 mi WSW 8.1 mph - 0.00 in Snow Light Snow
1:31 AM 19.4 °F 14.3 °F 15.8 °F 86% 30.02 in 0.8 mi West 3.5 mph - 0.00 in Snow Light Snow
1:51 AM 19.4 °F 11.5 °F 14.0 °F 80% 30.01 in 2.0 mi WSW 5.8 mph - 0.00 in Snow Light Snow
1:53 AM 19.0 °F 11.1 °F 14.0 °F 81% 30.08 in 3.0 mi WSW 5.8 mph - 0.00 in Snow Light Snow
2:14 AM 19.4 °F 7.9 °F 12.2 °F 74% 30.01 in 6.0 mi WSW 10.4 mph - 0.00 in Snow Light Snow
2:42 AM 19.4 °F 11.5 °F 14.0 °F 80% 30.01 in 1.8 mi WSW 5.8 mph - 0.00 in Snow Light Snow
2:53 AM 19.0 °F - 14.0 °F 81% 30.08 in 2.0 mi Calm Calm - 0.00 in Snow Light Snow
3:10 AM 19.4 °F 11.5 °F 12.2 °F 74% 30.01 in 4.0 mi WSW 5.8 mph - 0.00 in Snow Light Snow
3:24 AM 19.4 °F 9.5 °F 10.4 °F 68% 30.00 in 4.0 mi WSW 8.1 mph - 0.00 in Snow Light Snow
3:53 AM 18.0 °F 7.7 °F 10.9 °F 74% 30.06 in 5.0 mi SW 8.1 mph - 0.00 in Snow Light Snow
4:23 AM 17.6 °F 9.3 °F 10.4 °F 73% 29.99 in 4.0 mi WSW 5.8 mph - 0.00 in Snow Light Snow
4:53 AM 18.0 °F 8.7 °F 10.9 °F 74% 30.05 in 4.0 mi SW 6.9 mph - 0.00 in Snow Light Snow
5:53 AM 17.1 °F 8.7 °F 10.9 °F 77% 30.04 in 4.0 mi SW 5.8 mph - 0.00 in Snow Light Snow
6:26 AM 17.6 °F 7.3 °F 10.4 °F 73% 29.96 in 2.0 mi WSW 8.1 mph - 0.00 in Snow Light Snow
6:50 AM 17.6 °F 10.7 °F 10.4 °F 73% 29.96 in 1.8 mi WSW 4.6 mph - 0.00 in Snow Light Snow
6:53 AM 17.1 °F 8.7 °F 10.9 °F 77% 30.03 in 1.8 mi SW 5.8 mph - 0.00 in Snow Light Snow
7:39 AM 17.6 °F 12.3 °F 10.4 °F 73% 29.96 in 2.0 mi SW 3.5 mph - 0.00 in Snow Light Snow
7:53 AM 17.1 °F 10.0 °F 10.9 °F 77% 30.02 in 1.8 mi SW 4.6 mph - 0.00 in Snow Light Snow
7:59 AM 17.6 °F 9.3 °F 10.4 °F 73% 29.95 in 2.0 mi SW 5.8 mph - 0.00 in Snow Light Snow
8:23 AM 17.6 °F 10.7 °F 10.4 °F 73% 29.95 in 1.5 mi SW 4.6 mph - 0.00 in Snow Light Snow
8:31 AM 17.6 °F 12.3 °F 10.4 °F 73% 29.94 in 3.0 mi SW 3.5 mph - 0.00 in Snow Light Snow
8:38 AM 17.6 °F 8.2 °F 10.4 °F 73% 29.94 in 1.8 mi SW 6.9 mph - 0.00 in Snow Light Snow
8:53 AM 17.1 °F 10.0 °F 10.9 °F 77% 30.01 in 2.0 mi SW 4.6 mph - 0.00 in Snow Light Snow
9:08 AM 17.6 °F 12.3 °F 10.4 °F 73% 29.94 in 3.0 mi WSW 3.5 mph - 0.00 in Snow Light Snow
9:25 AM 17.6 °F 10.7 °F 10.4 °F 73% 29.94 in 1.8 mi SW 4.6 mph - 0.00 in Snow Light Snow
9:45 AM 17.6 °F 10.7 °F 10.4 °F 73% 29.94 in 2.5 mi WSW 4.6 mph - 0.00 in Snow Light Snow
9:53 AM 18.0 °F 11.1 °F 10.0 °F 71% 30.01 in 3.0 mi SW 4.6 mph - 0.00 in Snow Light Snow
10:16 AM 17.6 °F 8.2 °F 10.4 °F 73% 29.93 in 4.0 mi SSW 6.9 mph - 0.00 in   Haze
10:51 AM 17.6 °F 6.4 °F 6.8 °F 63% 29.92 in 9.0 mi WSW 9.2 mph - 0.00 in   Overcast
10:53 AM 18.0 °F 8.7 °F 7.0 °F 62% 29.99 in 9.0 mi WSW 6.9 mph - 0.00 in   Overcast
11:38 AM 19.4 °F 8.6 °F 8.6 °F 63% 29.89 in 10.0 mi WSW 9.2 mph - N/A   Overcast
11:53 AM 19.0 °F 9.0 °F 7.0 °F 59% 29.95 in 9.0 mi SW 8.1 mph - N/A   Overcast
12:53 PM 19.0 °F 7.5 °F 6.1 °F 57% 29.92 in 10.0 mi WSW 10.4 mph 18.4 mph N/A   Overcast
1:53 PM 19.0 °F 6.8 °F 5.0 °F 54% 29.91 in 10.0 mi WSW 11.5 mph 21.9 mph N/A   Overcast
2:42 PM 19.4 °F 5.0 °F 8.6 °F 63% 29.86 in 1.5 mi WSW 16.1 mph 21.9 mph 0.00 in Snow Light Snow
2:46 PM 17.6 °F 3.2 °F 10.4 °F 73% 29.86 in 0.2 mi WSW 15.0 mph 21.9 mph 0.00 in Snow Heavy Snow
2:51 PM 17.6 °F 4.3 °F 12.2 °F 79% 29.86 in 0.2 mi West 12.7 mph - 0.00 in Snow Heavy Snow
2:53 PM 18.0 °F 4.8 °F 12.9 °F 81% 29.93 in 0.2 mi West 12.7 mph 19.6 mph 0.00 in Snow Heavy Snow
3:01 PM 17.6 °F 5.7 °F 12.2 °F 79% 29.86 in 0.5 mi WSW 10.4 mph 19.6 mph 0.00 in Snow Snow
3:07 PM 17.6 °F 4.3 °F 10.4 °F 73% 29.86 in 2.5 mi WSW 12.7 mph - 0.00 in Snow Light Snow
3:14 PM 19.4 °F 10.4 °F 10.4 °F 68% 29.86 in 9.0 mi WSW 6.9 mph - 0.00 in   Overcast
3:22 PM 19.4 °F 9.5 °F 10.4 °F 68% 29.85 in 7.0 mi WSW 8.1 mph - 0.00 in   Overcast
3:53 PM 19.9 °F 5.2 °F 9.0 °F 62% 29.93 in 5.0 mi WSW 17.3 mph 21.9 mph 0.00 in Snow Light Snow
4:17 PM 17.6 °F 5.7 °F 8.6 °F 68% 29.87 in 1.8 mi SW 10.4 mph 23.0 mph 0.00 in Snow Light Snow
4:26 PM 17.6 °F 5.7 °F 10.4 °F 73% 29.87 in 3.0 mi WSW 10.4 mph - 0.00 in Snow Light Snow
4:41 PM 19.4 °F 5.0 °F 8.6 °F 63% 29.87 in 1.8 mi West 16.1 mph 23.0 mph 0.00 in Snow Light Snow
4:50 PM 17.6 °F 5.0 °F 5.0 °F 58% 29.87 in 4.0 mi WSW 11.5 mph 19.6 mph 0.00 in Snow Light Snow
4:53 PM 18.0 °F 5.4 °F 3.0 °F 52% 29.94 in 9.0 mi WSW 11.5 mph 19.6 mph 0.00 in   Scattered Clouds
5:53 PM 15.1 °F 0.5 °F 5.0 °F 64% 29.97 in 10.0 mi WSW 13.8 mph 24.2 mph N/A   Scattered Clouds
6:53 PM 14.0 °F -3.0 °F 1.9 °F 59% 29.98 in 10.0 mi WSW 18.4 mph 31.1 mph N/A   Partly Cloudy
7:53 PM 12.9 °F -0.2 °F 3.0 °F 65% 29.99 in 10.0 mi WSW 10.4 mph 19.6 mph N/A   Mostly Cloudy
8:03 PM 12.2 °F -3.1 °F 3.2 °F 67% 29.91 in 2.5 mi WSW 13.8 mph 19.6 mph 0.00 in Snow Light Snow
8:24 PM 12.2 °F -5.3 °F 6.8 °F 79% 29.91 in 1.5 mi WSW 18.4 mph 28.8 mph 0.00 in Snow Light Snow
8:31 PM 12.2 °F -4.3 °F 6.8 °F 79% 29.91 in 3.0 mi WSW 16.1 mph 26.5 mph 0.00 in Snow Light Snow
8:53 PM 12.0 °F -4.0 °F 5.0 °F 73% 29.99 in 7.0 mi WSW 15.0 mph 21.9 mph 0.00 in   Overcast
8:58 PM 12.2 °F -2.5 °F 5.0 °F 73% 29.92 in 2.5 mi WSW 12.7 mph 21.9 mph 0.00 in Snow Light Snow
9:06 PM 12.2 °F -2.5 °F 6.8 °F 79% 29.92 in 1.0 mi WSW 12.7 mph 20.7 mph 0.00 in Snow Light Snow
9:53 PM 12.0 °F -4.5 °F 6.1 °F 77% 30.01 in 1.5 mi WSW 16.1 mph 28.8 mph 0.00 in Snow Light Snow
10:07 PM 12.2 °F -3.1 °F 6.8 °F 79% 29.93 in 0.8 mi WSW 13.8 mph 23.0 mph 0.00 in Snow Light Snow
10:15 PM 12.2 °F -4.3 °F 6.8 °F 79% 29.93 in 1.0 mi WSW 16.1 mph 23.0 mph 0.00 in Snow Light Snow
10:20 PM 12.2 °F -3.7 °F 6.8 °F 79% 29.93 in 0.5 mi WSW 15.0 mph 23.0 mph 0.00 in Snow Snow
10:53 PM 10.9 °F -2.6 °F 7.0 °F 84% 30.01 in 0.5 mi WSW 10.4 mph 23.0 mph 0.00 in Fog , Snow Light Snow
11:51 PM 10.4 °F -7.2 °F 5.0 °F 79% 29.94 in 1.0 mi West 17.3 mph 25.3 mph 0.00 in   Haze
11:52 PM 10.0 °F -7.6 °F 5.0 °F 80% 30.02 in 1.0 mi West 17.3 mph 25.3 mph 0.00 in   Haze